Regional Weather Roundup
Issued by NWS

Home | Current Version | Previous Version | Graphics & Text | Print | Product List | Glossary On
Versions: 1 2 3 4 5 6 7 8 9 10 11 12 13 14 15 16 17 18 19 20 21 22 23 24 25 26 27 28 29 30 31 32 33 34 35 36 37 38 39 40 41 42 43 44 45 46 47 48 49 50
000
ASUS43 KMPX 041101
RWRMN
WEATHER ROUNDUP FOR MINNESOTA
NATIONAL WEATHER SERVICE TWIN CITIES/CHANHASSEN MN
600 AM CDT WED MAY 04 2016


NOTE: "FAIR" INDICATES FEW OR NO CLOUDS BELOW 12,000 FEET WITH NO
SIGNIFICANT WEATHER AND/OR OBSTRUCTIONS TO VISIBILITY. N/A MEANS
CURRENT SKY AND/OR WEATHER CONDITIONS ARE NOT AVAILABLE.

MNZ060>063-068>070-041200-
   Twin Cities Metro

CITY           SKY/WX    TMP DP  RH WIND       PRES   REMARKS
TWIN CITIES    CLEAR     46  33  60 N7        29.94R
ST PAUL        CLEAR     43  33  68 NW7       29.95R
CRYSTAL        CLEAR     44  32  62 NW6       29.94R
BLAINE         CLEAR     45  34  65 N7        29.95R
EDEN PRAIRIE   CLEAR     46  32  58 N6        29.94R
SOUTH ST PAUL  CLEAR     46  33  60 N6        29.94R
LAKE ELMO      FAIR      41  34  75 NW6       29.94R
$$
MNZ001>005-007-008-013>017-022>024-027-028-041200-
   Northwest Minnesota

CITY           SKY/WX    TMP DP  RH WIND       PRES   REMARKS
BEMIDJI        CLEAR     33  32  95 NW5       30.01R WCI  29
HALLOCK        CLEAR     32  28  86 CALM      30.06S
ROSEAU         CLEAR     37  32  81 NW3       30.05R
WARROAD        CLEAR     36  32  87 NW5       30.04S
THIEF RVR FALL CLEAR     37  32  81 N7        30.05R
CROOKSTON      CLEAR     32  28  86 N5        30.07R WCI  27
FOSSTON        CLEAR     32  30  93 N3        30.04R
DETROIT LAKES  CLEAR     37  34  87 NW6       30.03R
MOORHEAD       CLEAR     37  28  70 NW6       30.05R
PARK RAPIDS    CLEAR     37  32  82 N7        30.00R
MAHNOMEN       FAIR      36  33  88 CALM      30.02S
$$
MNZ006-009>011-018-025>026-041200-
   North Central Minnesota

CITY           SKY/WX    TMP DP  RH WIND       PRES   REMARKS
BAUDETTE       CLEAR     39  34  82 N6        30.02R
FLAG ISLAND    CLEAR     43  36  75 N9        30.03R
INTL FALLS     CLEAR     34  30  85 NW7       29.99R WCI  28
WASKISH        PTCLDY    39  36  87 N5        30.02R
BIG FORK       CLEAR     36  30  80 CALM      29.98S
LONGVILLE      CLEAR     34  34 100 CALM      29.98R
GRAND RAPIDS   MOCLDY    37  28  70 NW5       29.98R
CRANE LAKE     CLEAR     27  25  93 CALM      29.98R
ORR            CLEAR     37  30  75 CALM      29.94R
COOK           CLEAR     30  28  93 CALM      29.96R
WALKER         FAIR      34  31  89 W5        29.99S WCI  30
$$
MNZ012-019>021-037-041200-
   Northeast Minnesota

CITY           SKY/WX    TMP DP  RH WIND       PRES   REMARKS
DULUTH         CLEAR     39  31  72 N8        29.92R
ELY            CLEAR     36  32  87 NW5       29.92S
HIBBING        CLEAR     35  30  82 N8        29.94R WCI  29
EVELETH        CLEAR     39  30  70 N7        29.95R
DULUTH HARBOR  CLEAR     43  36  75 NW8       29.93R
TWO HARBORS    CLEAR     39  34  81 CALM      29.90R
SILVER BAY     CLEAR     36  30  80 CALM      29.89R
GRAND MARAIS     N/A     39  29  67 CALM      29.89R
G MARAIS ARPRT CLEAR     34  25  69 N6        29.87R WCI  29
$$
MNZ029>031-032-039>041-046>048-054>057-064-041200-
   West Central Minnesota

CITY           SKY/WX    TMP DP  RH WIND       PRES   REMARKS
FERGUS FALLS   CLEAR     41  36  81 CALM      30.01R
WHEATON        CLEAR     39  34  81 W5        30.06R
MORRIS         CLEAR     36  30  80 NW7       30.01R
ALEXANDRIA     CLEAR     42  33  70 NW6       30.01R
ELBOW LAKE     FAIR      41  36  81 CALM      30.02R
WADENA         CLEAR     37  30  75 N3        30.00R
GLENWOOD       CLEAR     41  32  70 NW7       30.01R
APPLETON       CLEAR     39  34  81 NW5       30.02R
BENSON         CLEAR     37  32  81 N3        30.01R
ORTONVILLE     CLEAR     43  32  65 NW6       30.03R
MADISON        CLEAR     41  34  75 NW7       30.02R
WILLMAR        FAIR      41  34  75 NW6       30.01R
$$
MNZ033>034-036-042>043-049>051-058-059-041200-
   Central Minnesota

CITY           SKY/WX    TMP DP  RH WIND       PRES   REMARKS
ST CLOUD       CLEAR     39  32  76 N5        29.97R
SAUK CENTRE    FAIR      38  32  79 NW6       29.99S
PAYNESVILLE    CLEAR     42  32  68 CALM      29.99R
AITKIN         CLEAR     36  28  75 CALM      29.95S
PINE RIVER     CLEAR     39  34  81 NW3       30.02R
BRAINERD       CLEAR     36  31  82 NW5       29.98R
STAPLES        CLEAR     36  30  80 NW5       29.99S
LONG PRAIRIE   FAIR      37  32  81 CALM      30.00R
LITTLE FALLS   CLEAR     34  32  93 CALM      29.98S
LITCHFIELD     CLEAR     43  34  70 NW3       29.98R
BUFFALO        CLEAR     42  32  68 NW3       29.97R
MAPLE LAKE     CLEAR     41  34  77 NW5       29.98R
HUTCHINSON     CLEAR     41  34  77 N8        29.98R
$$
MNZ037-044-045-052-053-041200-
   East Central Minnesota

CITY           SKY/WX    TMP DP  RH WIND       PRES   REMARKS
PRINCETON      CLEAR     39  32  75 NW5       29.96S
MORA           CLEAR     37  30  75 NW3       29.97R
CAMBRIDGE      CLEAR     43  30  61 CALM      29.93S
RUSH CITY      CLEAR     39  32  76 NW3       29.94R
MOOSE LAKE     CLEAR     39  32  75 NW8       29.92R
HINCKLEY       CLOUDY    41  32  70 NW6       29.94R
CLOQUET        CLEAR     37  30  75 NW6       29.93R
MCGREGOR       CLEAR     39  32  75 NW7       29.96R
$$
MNZ071>073-080-081-089-090-097-098-041200-
   Southwest Minnesota

CITY           SKY/WX    TMP DP  RH WIND       PRES   REMARKS
MONTEVIDEO     CLEAR     41  30  65 N5        30.03R
GRANITE FALLS  CLEAR     44  35  68 NW6       30.02R
CANBY          CLEAR     42  36  78 W8        30.04R
MARSHALL       CLEAR     37  31  78 NW9       30.01R
REDWOOD FALLS  CLEAR     45  32  60 NW8       29.99R
OLIVIA         CLEAR     39  32  75 NW5       29.99R
PIPESTONE      CLEAR     43  32  65 N3        30.01R
WINDOM         CLEAR     41  34  75 NW9       29.98R
WORTHINGTON    CLEAR     41  34  76 N10       29.98R
JACKSON        PTCLDY    43  32  65 N6        29.97R
TRACY          CLEAR     43  34  69 NW9       30.00R
SLAYTON        CLEAR     42  33  69 N8        29.99S
$$
MNZ065>067-074>077-082>085-091>093-041200-
   South Central Minnesota

CITY           SKY/WX    TMP DP  RH WIND       PRES   REMARKS
MANKATO        CLEAR     45  30  57 N7        29.95R
NEW ULM        CLEAR     45  32  61 N3        29.96R
ST JAMES       CLEAR     36  30  80 NW8       29.97R
FAIRMONT       CLEAR     45  30  57 N9        29.94R
GLENCOE        CLEAR     43  36  74 N5        29.96R
FARIBAULT      CLEAR     45  34  65 N3        29.94R
OWATONNA       CLEAR     43  30  61 CALM      29.93R
WASECA         CLEAR     41  32  70 N5        29.95R
ALBERT LEA     CLEAR     45  34  65 N9        29.92R
$$
MNZ078>079-086>088-094>096-041200-
   Southeast Minnesota

CITY           SKY/WX    TMP DP  RH WIND       PRES   REMARKS
ROCHESTER      CLEAR     43  33  68 N13       29.90R
RED WING       CLEAR     41  34  75 CALM      29.91R
STANTON        CLEAR     41  32  70 N7        29.92R
DODGE CENTER   CLEAR     39  32  75 N6        29.91R
WINONA         CLEAR     46  36  66 CALM      29.89R
AUSTIN         CLEAR     43  34  70 N7        29.90R
PRESTON        CLEAR     41  33  73 N8        29.89R
$$
ABBREVIATIONS USED IN REMARKS
   TC - TEMPERATURES IN CELSIUS
  WCI - WIND CHILL INDEX
   HX - HEAT INDEX
  VSB - VISIBILITY
$$




USA.gov is the U.S. government's official web portal to all federal, state and local government web resources and services.